Time,TemperatureF,DewpointF,PressureIn,WindDirection,WindDirectionDegrees,WindSpeedMPH,WindSpeedGustMPH,Humidity,HourlyPrecipIn,Conditions,Clouds,dailyrainin,SoftwareType,DateUTC
2013-05-05 00:11:00,54.7,53.0,29.92,South,183,0.0,-999.0,94,-99.99,,,0.00,weatherlink.com 1.10,2013-05-05 05:11:00,
2013-05-05 00:26:00,54.7,53.0,29.91,South,183,0.0,-999.0,94,-99.99,,,0.00,weatherlink.com 1.10,2013-05-05 05:26:00,
2013-05-05 00:41:00,54.6,53.0,29.92,South,183,0.0,-999.0,94,-99.99,,,0.00,weatherlink.com 1.10,2013-05-05 05:41:00,
2013-05-05 00:56:00,54.4,53.0,29.92,South,183,0.0,-999.0,94,-99.99,,,0.00,weatherlink.com 1.10,2013-05-05 05:56:00,
2013-05-05 01:11:00,54.4,53.0,29.92,South,183,0.0,-999.0,94,-99.99,,,0.00,weatherlink.com 1.10,2013-05-05 06:11:00,
2013-05-05 01:26:00,54.2,53.0,29.91,South,183,0.0,-999.0,94,-99.99,,,0.00,weatherlink.com 1.10,2013-05-05 06:26:00,
2013-05-05 01:41:00,54.2,53.0,29.91,South,183,0.0,-999.0,94,-99.99,,,0.00,weatherlink.com 1.10,2013-05-05 06:41:00,
2013-05-05 01:56:00,54.2,53.0,29.91,South,183,0.0,-999.0,94,-99.99,,,0.00,weatherlink.com 1.10,2013-05-05 06:56:00,
2013-05-05 02:11:00,54.2,53.0,29.90,South,183,0.0,-999.0,94,-99.99,,,0.00,weatherlink.com 1.10,2013-05-05 07:11:00,
2013-05-05 02:26:00,54.2,53.0,29.90,South,183,0.0,-999.0,94,-99.99,,,0.00,weatherlink.com 1.10,2013-05-05 07:26:00,
2013-05-05 02:41:00,54.4,53.0,29.90,South,183,0.0,-999.0,94,-99.99,,,0.00,weatherlink.com 1.10,2013-05-05 07:41:00,
2013-05-05 02:56:00,54.4,53.0,29.90,South,183,0.0,-999.0,94,-99.99,,,0.00,weatherlink.com 1.10,2013-05-05 07:56:00,
2013-05-05 03:11:00,54.5,53.0,29.90,NNW,335,0.0,-999.0,94,-99.99,,,0.00,weatherlink.com 1.10,2013-05-05 08:11:00,
2013-05-05 03:26:00,54.5,53.0,29.90,NNW,335,0.0,-999.0,94,-99.99,,,0.00,weatherlink.com 1.10,2013-05-05 08:26:00,
2013-05-05 03:41:00,54.5,53.0,29.90,NNW,335,0.0,-999.0,94,-99.99,,,0.00,weatherlink.com 1.10,2013-05-05 08:41:00,
2013-05-05 03:56:00,54.5,53.0,29.89,NNW,335,0.0,-999.0,94,-99.99,,,0.00,weatherlink.com 1.10,2013-05-05 08:56:00,
2013-05-05 04:11:00,54.4,53.0,29.90,NNW,335,0.0,-999.0,94,-99.99,,,0.00,weatherlink.com 1.10,2013-05-05 09:11:00,
2013-05-05 04:26:00,54.4,53.0,29.90,NNW,335,0.0,-999.0,94,-99.99,,,0.00,weatherlink.com 1.10,2013-05-05 09:26:00,
2013-05-05 04:41:00,54.3,53.0,29.89,NNW,335,0.0,-999.0,94,-99.99,,,0.00,weatherlink.com 1.10,2013-05-05 09:41:00,
2013-05-05 04:56:00,54.1,53.0,29.89,NNW,335,0.0,-999.0,95,-99.99,,,0.00,weatherlink.com 1.10,2013-05-05 09:56:00,
2013-05-05 05:11:00,53.9,53.0,29.89,NNW,335,0.0,-999.0,95,-99.99,,,0.00,weatherlink.com 1.10,2013-05-05 10:11:00,
2013-05-05 05:26:00,53.7,52.0,29.89,NNW,335,0.0,-999.0,95,-99.99,,,0.00,weatherlink.com 1.10,2013-05-05 10:26:00,
2013-05-05 05:41:00,53.7,53.0,29.88,NNW,335,0.0,-999.0,96,-99.99,,,0.00,weatherlink.com 1.10,2013-05-05 10:41:00,
2013-05-05 05:56:00,53.7,53.0,29.89,NNW,335,0.0,-999.0,96,-99.99,,,0.00,weatherlink.com 1.10,2013-05-05 10:56:00,
2013-05-05 06:11:00,53.8,53.0,29.88,NNW,335,0.0,-999.0,96,-99.99,,,0.00,weatherlink.com 1.10,2013-05-05 11:11:00,
2013-05-05 06:26:00,53.9,53.0,29.88,NNW,335,0.0,-999.0,96,-99.99,,,0.00,weatherlink.com 1.10,2013-05-05 11:26:00,
2013-05-05 06:41:00,54.1,53.0,29.88,NNW,335,2.0,-999.0,96,-99.99,,,0.00,weatherlink.com 1.10,2013-05-05 11:41:00,
2013-05-05 06:56:00,54.2,53.0,29.88,North,351,2.0,-999.0,96,-99.99,,,0.00,weatherlink.com 1.10,2013-05-05 11:56:00,
2013-05-05 07:11:00,54.4,54.0,29.88,North,351,3.0,-999.0,97,-99.99,,,0.00,weatherlink.com 1.10,2013-05-05 12:11:00,
2013-05-05 07:26:00,54.7,54.0,29.88,North,351,4.0,-999.0,96,-99.99,,,0.00,weatherlink.com 1.10,2013-05-05 12:26:00,
2013-05-05 07:41:00,55.3,54.0,29.88,North,355,5.0,-999.0,96,-99.99,,,0.00,weatherlink.com 1.10,2013-05-05 12:41:00,
2013-05-05 07:56:00,56.2,55.0,29.87,North,355,6.0,-999.0,95,-99.99,,,0.00,weatherlink.com 1.10,2013-05-05 12:56:00,
2013-05-05 08:11:00,57.1,55.0,29.87,North,355,7.0,-999.0,93,-99.99,,,0.00,weatherlink.com 1.10,2013-05-05 13:11:00,
2013-05-05 08:26:00,57.1,55.0,29.88,NNW,344,5.0,-999.0,91,-99.99,,,0.00,weatherlink.com 1.10,2013-05-05 13:26:00,
2013-05-05 08:41:00,56.8,54.0,29.89,North,360,0.0,-999.0,90,-99.99,,,0.00,weatherlink.com 1.10,2013-05-05 13:41:00,
2013-05-05 08:56:00,56.9,53.0,29.89,NNW,340,2.0,-999.0,88,-99.99,,,0.00,weatherlink.com 1.10,2013-05-05 13:56:00,
2013-05-05 09:11:00,56.8,53.0,29.89,North,11,3.0,-999.0,88,-99.99,,,0.00,weatherlink.com 1.10,2013-05-05 14:11:00,
2013-05-05 09:26:00,56.9,53.0,29.88,NE,34,1.0,-999.0,88,-99.99,,,0.00,weatherlink.com 1.10,2013-05-05 14:26:00,
2013-05-05 09:41:00,57.2,53.0,29.88,NNE,17,2.0,-999.0,86,-99.99,,,0.00,weatherlink.com 1.10,2013-05-05 14:41:00,
2013-05-05 09:56:00,58.1,54.0,29.88,NNE,26,0.0,-999.0,85,-99.99,,,0.00,weatherlink.com 1.10,2013-05-05 14:56:00,
2013-05-05 10:11:00,59.3,54.0,29.88,North,11,0.0,-999.0,83,-99.99,,,0.00,weatherlink.com 1.10,2013-05-05 15:11:00,
2013-05-05 10:26:00,60.1,55.0,29.88,North,10,7.0,-999.0,82,-99.99,,,0.00,weatherlink.com 1.10,2013-05-05 15:26:00,
2013-05-05 10:41:00,60.7,55.0,29.88,NE,39,0.0,-999.0,81,-99.99,,,0.00,weatherlink.com 1.10,2013-05-05 15:41:00,
2013-05-05 10:56:00,62.1,55.0,29.88,North,9,3.0,-999.0,78,-99.99,,,0.00,weatherlink.com 1.10,2013-05-05 15:56:00,
2013-05-05 11:11:00,63.2,56.0,29.88,North,355,5.0,-999.0,77,-99.99,,,0.00,weatherlink.com 1.10,2013-05-05 16:11:00,
2013-05-05 11:26:00,64.2,57.0,29.87,North,355,5.0,-999.0,77,-99.99,,,0.00,weatherlink.com 1.10,2013-05-05 16:26:00,
2013-05-05 11:41:00,64.2,57.0,29.87,NNW,346,4.0,-999.0,76,-99.99,,,0.00,weatherlink.com 1.10,2013-05-05 16:41:00,
2013-05-05 11:56:00,64.8,57.0,29.85,North,349,6.0,-999.0,75,-99.99,,,0.00,weatherlink.com 1.10,2013-05-05 16:56:00,
2013-05-05 12:11:00,65.4,57.0,29.85,North,360,6.0,-999.0,74,-99.99,,,0.00,weatherlink.com 1.10,2013-05-05 17:11:00,
2013-05-05 12:26:00,66.1,58.0,29.85,North,355,0.0,-999.0,74,-99.99,,,0.00,weatherlink.com 1.10,2013-05-05 17:26:00,
2013-05-05 12:41:00,67.2,57.0,29.85,NE,44,3.0,-999.0,69,-99.99,,,0.00,weatherlink.com 1.10,2013-05-05 17:41:00,
2013-05-05 12:56:00,67.6,56.0,29.85,NE,51,3.0,-999.0,67,-99.99,,,0.00,weatherlink.com 1.10,2013-05-05 17:56:00,
2013-05-05 13:11:00,68.4,56.0,29.84,East,84,1.0,-999.0,64,-99.99,,,0.00,weatherlink.com 1.10,2013-05-05 18:11:00,
2013-05-05 13:26:00,68.6,56.0,29.84,North,350,0.0,-999.0,64,-99.99,,,0.00,weatherlink.com 1.10,2013-05-05 18:26:00,
2013-05-05 13:41:00,69.2,53.0,29.83,NE,34,2.0,-999.0,57,-99.99,,,0.00,weatherlink.com 1.10,2013-05-05 18:41:00,
2013-05-05 13:56:00,69.9,53.0,29.83,East,96,0.0,-999.0,56,-99.99,,,0.00,weatherlink.com 1.10,2013-05-05 18:56:00,
2013-05-05 14:11:00,69.9,53.0,29.82,ENE,76,0.0,-999.0,56,-99.99,,,0.00,weatherlink.com 1.10,2013-05-05 19:11:00,
2013-05-05 14:26:00,69.9,54.0,29.82,ENE,67,0.0,-999.0,57,-99.99,,,0.00,weatherlink.com 1.10,2013-05-05 19:26:00,
2013-05-05 14:41:00,70.1,51.0,29.82,North,360,5.0,-999.0,51,-99.99,,,0.00,weatherlink.com 1.10,2013-05-05 19:41:00,
2013-05-05 14:56:00,70.2,51.0,29.82,NE,43,2.0,-999.0,51,-99.99,,,0.00,weatherlink.com 1.10,2013-05-05 19:56:00,
2013-05-05 15:11:00,69.7,50.0,29.82,East,94,1.0,-999.0,50,-99.99,,,0.00,weatherlink.com 1.10,2013-05-05 20:11:00,
2013-05-05 15:26:00,69.5,51.0,29.82,ENE,70,3.0,-999.0,53,-99.99,,,0.00,weatherlink.com 1.10,2013-05-05 20:26:00,
2013-05-05 15:41:00,69.2,52.0,29.82,ENE,71,7.0,-999.0,54,-99.99,,,0.00,weatherlink.com 1.10,2013-05-05 20:41:00,
2013-05-05 15:56:00,68.6,53.0,29.82,East,88,1.0,-999.0,57,-99.99,,,0.00,weatherlink.com 1.10,2013-05-05 20:56:00,
2013-05-05 16:11:00,68.1,52.0,29.82,ENE,71,2.0,-999.0,56,-99.99,,,0.00,weatherlink.com 1.10,2013-05-05 21:11:00,
2013-05-05 16:26:00,67.9,53.0,29.82,East,93,3.0,-999.0,59,-99.99,,,0.00,weatherlink.com 1.10,2013-05-05 21:26:00,
2013-05-05 16:41:00,67.6,51.0,29.82,ENE,74,3.0,-999.0,56,-99.99,,,0.00,weatherlink.com 1.10,2013-05-05 21:41:00,
2013-05-05 16:56:00,66.6,52.0,29.82,ENE,74,0.0,-999.0,59,-99.99,,,0.00,weatherlink.com 1.10,2013-05-05 21:56:00,
2013-05-05 17:11:00,65.7,53.0,29.83,ESE,106,7.0,-999.0,64,-99.99,,,0.00,weatherlink.com 1.10,2013-05-05 22:11:00,
2013-05-05 17:26:00,65.1,53.0,29.83,East,101,1.0,-999.0,64,-99.99,,,0.00,weatherlink.com 1.10,2013-05-05 22:26:00,
2013-05-05 17:41:00,64.9,53.0,29.84,ESE,115,2.0,-999.0,65,-99.99,,,0.00,weatherlink.com 1.10,2013-05-05 22:41:00,
2013-05-05 17:56:00,64.0,54.0,29.85,ENE,73,3.0,-999.0,71,-99.99,,,0.00,weatherlink.com 1.10,2013-05-05 22:56:00,
2013-05-05 18:11:00,62.4,55.0,29.85,ENE,76,2.0,-999.0,76,-99.99,,,0.00,weatherlink.com 1.10,2013-05-05 23:11:00,
2013-05-05 18:26:00,61.9,55.0,29.85,NE,46,0.0,-999.0,77,-99.99,,,0.00,weatherlink.com 1.10,2013-05-05 23:26:00,
2013-05-05 18:41:00,61.8,55.0,29.85,NE,46,0.0,-999.0,77,-99.99,,,0.00,weatherlink.com 1.10,2013-05-05 23:41:00,
2013-05-05 18:56:00,61.6,54.0,29.84,ENE,69,0.0,-999.0,75,-99.99,,,0.00,weatherlink.com 1.10,2013-05-05 23:56:00,
2013-05-05 19:11:00,61.5,55.0,29.85,ENE,63,0.0,-999.0,78,-99.99,,,0.00,weatherlink.com 1.10,2013-05-06 00:11:00,
2013-05-05 19:26:00,61.3,55.0,29.86,ENE,62,0.0,-999.0,79,-99.99,,,0.00,weatherlink.com 1.10,2013-05-06 00:26:00,
2013-05-05 19:41:00,61.1,54.0,29.86,ENE,62,0.0,-999.0,78,-99.99,,,0.00,weatherlink.com 1.10,2013-05-06 00:41:00,
2013-05-05 19:56:00,60.8,55.0,29.86,ENE,62,0.0,-999.0,81,-99.99,,,0.00,weatherlink.com 1.10,2013-05-06 00:56:00,
2013-05-05 20:11:00,60.5,55.0,29.86,ENE,62,0.0,-999.0,81,-99.99,,,0.00,weatherlink.com 1.10,2013-05-06 01:11:00,
2013-05-05 20:26:00,60.5,55.0,29.86,ENE,62,0.0,-999.0,81,-99.99,,,0.00,weatherlink.com 1.10,2013-05-06 01:26:00,
2013-05-05 20:41:00,60.5,55.0,29.87,ENE,63,0.0,-999.0,81,-99.99,,,0.00,weatherlink.com 1.10,2013-05-06 01:41:00,
2013-05-05 20:56:00,60.6,55.0,29.87,ENE,63,1.0,-999.0,81,-99.99,,,0.00,weatherlink.com 1.10,2013-05-06 01:56:00,
2013-05-05 21:11:00,60.7,55.0,29.89,SSE,159,2.0,-999.0,81,-99.99,,,0.00,weatherlink.com 1.10,2013-05-06 02:11:00,
2013-05-05 21:26:00,59.4,54.0,29.89,SE,146,0.0,-999.0,83,-99.99,,,0.00,weatherlink.com 1.10,2013-05-06 02:26:00,
2013-05-05 21:41:00,58.4,54.0,29.90,SE,146,1.0,-999.0,85,-99.99,,,0.00,weatherlink.com 1.10,2013-05-06 02:41:00,
2013-05-05 21:56:00,58.1,54.0,29.90,ESE,107,0.0,-999.0,85,-99.99,,,0.00,weatherlink.com 1.10,2013-05-06 02:56:00,
2013-05-05 22:11:00,58.2,53.0,29.90,ENE,77,0.0,-999.0,84,-99.99,,,0.00,weatherlink.com 1.10,2013-05-06 03:11:00,
2013-05-05 22:26:00,58.4,53.0,29.90,ENE,65,0.0,-999.0,82,-99.99,,,0.00,weatherlink.com 1.10,2013-05-06 03:26:00,
2013-05-05 22:41:00,58.3,53.0,29.90,NE,40,0.0,-999.0,82,-99.99,,,0.00,weatherlink.com 1.10,2013-05-06 03:41:00,
2013-05-05 22:56:00,58.4,53.0,29.91,ENE,65,2.0,-999.0,83,-99.99,,,0.00,weatherlink.com 1.10,2013-05-06 03:56:00,
2013-05-05 23:11:00,58.1,53.0,29.90,East,80,0.0,-999.0,83,-99.99,,,0.00,weatherlink.com 1.10,2013-05-06 04:11:00,
2013-05-05 23:26:00,57.8,53.0,29.90,ENE,77,1.0,-999.0,83,-99.99,,,0.00,weatherlink.com 1.10,2013-05-06 04:26:00,
2013-05-05 23:41:00,57.4,53.0,29.90,ENE,76,1.0,-999.0,84,-99.99,,,0.00,weatherlink.com 1.10,2013-05-06 04:41:00,
2013-05-05 23:56:00,57.1,52.0,29.90,ENE,76,0.0,-999.0,84,-99.99,,,0.00,weatherlink.com 1.10,2013-05-06 04:56:00,